AirNav   Duncan Aviation - Near you to keep you flying
 
 1550 users online  

DE30 Bracebridge III Heliport
Wilmington, Delaware, USA

GOING TO WILMINGTON?


FAA INFORMATION EFFECTIVE 26 JANUARY 2023

Location

FAA Identifier: DE30
Lat/Long: 39-44-08.0000N 075-32-07.0000W
39-44.133333N 075-32.116667W
39.7355556,-75.5352778
(estimated)
Elevation: 125 ft. / 38 m
Variation: 12W (2000)
Time zone: UTC -5 (UTC -4 during Daylight Saving Time)
Zip code: 19801

Heliport Operations

Heliport use: Private use. Permission required prior to landing
Activation date: 12/2001
Control tower: no
ARTCC: NEW YORK CENTER
FSS: MILLVILLE FLIGHT SERVICE STATION
Attendance: UNATNDD
Wind indicator: yes
Segmented circle: no
Lights: FOR PERIMETER LGTS CALL 301-325-7705.

Heliport Communications

WX ASOS at ILG (5 nm SW): 123.95 (302-328-1536)
WX AWOS-3T at OQN (15 nm N): 121.4 ((610) 692-6190)
WX AWOS-3 at EVY (16 nm SW): 132.325 (302-378-2063)
WX ASOS at PHL (16 nm NE): PHONE 215-492-9617

Nearby radio navigation aids

VOR radial/distance  VOR name  Freq  Var
DQOr054/4.8DUPONT VORTAC114.0010W
OODr309/12.3WOODSTOWN VORTAC112.8010W
MXEr159/12.6MODENA VORTAC113.2009W
VCNr304/28.8CEDAR LAKE VOR/DME115.2010W
PTWr187/29.2POTTSTOWN VORTAC116.5009W
ENOr007/30.2SMYRNA VORTAC111.4009W

 
NDB name  Hdg/Dist  Freq  Var  ID
HADIN031/9.924810WIL .. .-..
RAINBOW327/26.636311WRNB .-. -. -...

Heliport Services

Runway Information

Helipad H1

Dimensions: 83 x 75 ft. / 25 x 23 m
Surface: concrete
ROOFTOP.
Runway edge lights: PERI
Traffic pattern: leftleft

Heliport Ownership and Management from official FAA records

Ownership: Privately-owned
Owner: MBNA CORP
142 OLD CHURCHMANS RD
NEW CASTLE, DE 19720
Phone 302-325-7705
Manager: JOHN NADOLNY
142 OLD CHURCHMANS RD
NEWCASTLE, DE 19720
Phone 302-325-7705

Additional Remarks

A52-H1 H1--120 FT BLDS 528 FT SW, 120 FT BLDGS 1056 FT NW, 23 FT BLDGS 528 FT NE & 120 FT BLDGS 1584 FT NE.
FOR CD CTC PHILADELPHIA APCH AT 800-354-9884.

Instrument Procedures

There are no published instrument procedures at DE30.

Some nearby airports with instrument procedures:

KILG - New Castle Airport (5 nm SW)
7N7 - Spitfire Aerodrome (6 nm E)
N57 - New Garden Airport (12 nm NW)
KOQN - Brandywine Regional Airport (15 nm N)
KEVY - Summit Airport (16 nm SW)
KPHL - Philadelphia International Airport (16 nm NE)
58M - Claremont Airport (18 nm SW)
 
Loc | Ops | Rwys | IFR | FBO | Links
Com | Nav | Svcs | Stats | Notes
Area around DE30 (Bracebridge III Heliport)
 
Road maps at: MapQuest Bing Google
 
Aerial photo
No photo
 
Sectional chart

 
Airport distance calculator
Flying to Bracebridge III Heliport? Find the distance to fly.

From to DE30

Sunrise and sunset
Times for 07-Feb-2023
 Local
(UTC-5)
 Zulu
(UTC)
Morning civil twilight06:3711:37
Sunrise07:0512:05
Sunset17:2822:28
Evening civil twilight17:5622:56

Current date and time
Zulu (UTC)  07-Feb-2023 22:22:18
Local (UTC-5)  07-Feb-2023 17:22:18
 
METAR
KILG 
5nm SW 
072151Z 17009KT 10SM CLR 04/01 A3023 RMK AO2 SLP238 T00440011
KOQN 
15nm N 
072155Z AUTO 17003KT 10SM CLR 05/M01 A3019 RMK AO2
KPHL 
16nm NE 
072154Z 20005KT 10SM FEW160 BKN220 BKN260 06/M01 A3023 RMK AO2 SLP236 T00611011
TAF
KILG 
5nm SW 
071720Z 0718/0818 18009KT P6SM OVC150 FM080400 20005KT P6SM OVC050 TEMPO 0804/0807 6SM -RA BR BKN025 FM080700 28005KT P6SM BKN050 FM081500 32011KT P6SM SCT050
KPHL 
16nm NE 
071720Z 0718/0824 18008KT P6SM OVC150 FM080300 20005KT P6SM OVC050 TEMPO 0803/0806 6SM -RA BR BKN025 FM080700 28005KT P6SM BKN050 FM081500 32010KT P6SM SCT050
NOTAMs
Click for the latest NOTAMs
NOTAMs are issued by the DoD/FAA and will open in a separate window not controlled by AirNav.

 

 
 

Would you like to see your business listed on this page?

 If your business provides an interesting product or service to pilots, flight crews, aircraft, or users of the Bracebridge III Heliport, you should consider listing it here.  To start the listing process, click on the button below
 
Add a business
 

Other Pages about Bracebridge III Heliport

Update a link
 
Copyright © AirNav, LLC. All rights reserved. Privacy Policy  Contact